This is the latest recevied weather packets stored in our database for station/object EA1IOK-1. If no packets are shown the sender has not sent any weather packets the latest 10 day(s).
| Time | Temp. | Humidity | Pressure | Rain* | Wind** | Luminosity | Snow |
|---|---|---|---|---|---|---|---|
| 1778024513 | 8.89° C | 100% | 1015.1 hPa | - | - | - | - |
| 1778023617 | 8.89° C | 100% | 1015.1 hPa | - | - | - | - |
| 1778022711 | 8.89° C | 100% | 1015.2 hPa | - | - | - | - |
| 1778021810 | 8.89° C | 100% | 1015.4 hPa | - | - | - | - |
| 1778020912 | 8.89° C | 100% | 1015.3 hPa | - | - | - | - |
| 1778020012 | 9.44° C | 100% | 1015.3 hPa | - | - | - | - |
| 1778019107 | 9.44° C | 100% | 1015.1 hPa | - | - | - | - |
| 1778018211 | 9.44° C | 100% | 1015.2 hPa | - | - | - | - |
| 1778017310 | 8.89° C | 100% | 1015.2 hPa | - | - | - | - |
| 1778016405 | 9.44° C | 100% | 1015.2 hPa | - | - | - | - |
| 1778015504 | 9.44° C | 100% | 1015.1 hPa | - | - | - | - |
| 1778014604 | 9.44° C | 100% | 1015.1 hPa | - | - | - | - |
| 1778013707 | 9.44° C | 100% | 1015.1 hPa | - | - | - | - |
| 1778012803 | 9.44° C | 100% | 1015 hPa | - | - | - | - |
| 1778011901 | 9.44° C | 100% | 1014.9 hPa | - | - | - | - |
| 1778011004 | 9.44° C | 100% | 1014.7 hPa | - | - | - | - |
| 1778010108 | 10° C | 100% | 1014.6 hPa | - | - | - | - |
| 1778009202 | 10.56° C | 100% | 1014.4 hPa | - | - | - | - |
| 1778008298 | 10.56° C | 100% | 1014.3 hPa | - | - | - | - |
| 1778007402 | 11.67° C | 100% | 1014.2 hPa | - | - | - | - |
| 1778006496 | 12.22° C | 100% | 1014.1 hPa | - | - | - | - |
| 1778005598 | 14.44° C | 100% | 1014 hPa | - | - | - | - |
| 1778004693 | 13.33° C | 100% | 1013.9 hPa | - | - | - | - |
| 1778003797 | 12.78° C | 100% | 1014 hPa | - | - | - | - |
| 1778002897 | 12.78° C | 100% | 1014.1 hPa | - | - | - | - |
* Rain since midnight (hover to see other rain measurements)
** Current wind speed in m/s (hover to see current wind gust speed)